Location: Phoenix
(33.4480°N, 112.0730°W)
Time: 19:07:37
(UTC-07:00)

ISS - All Passes

Search period start: 28 July 2016 00:00
Search period end: 07 August 2016 00:00
Orbit: 401 x 404 km, 51.6° (Epoch: 28 July)

Date Brightness Start Highest point End Pass type
(mag) Time Alt. Az. Time Alt. Az. Time Alt. Az.
28 Jul - 03:13:45 10° NNW 03:16:33 25° NE 03:19:19 10° E visible
28 Jul - 04:50:15 10° WNW 04:52:52 22° SW 04:55:29 10° S visible
28 Jul - 19:49:43 10° SW 19:52:58 74° SE 19:56:12 10° NE visible
28 Jul - 21:28:18 10° NW 21:29:43 12° NNW 21:31:09 10° N visible
29 Jul - 02:21:28 10° N 02:23:25 15° NNE 02:25:23 10° ENE night (unlit)
29 Jul - 03:56:54 10° NW 04:00:04 51° SW 04:03:13 10° SSE visible
29 Jul - 18:57:13 10° SSW 19:00:07 30° SE 19:03:01 10° ENE daylight
29 Jul - 20:34:02 10° W 20:36:34 20° NW 20:39:05 10° NNE visible
30 Jul - 03:03:56 10° NW 03:07:10 66° NE 03:10:23 10° SE night (unlit)
30 Jul - 18:05:33 10° SSE 18:07:21 14° SE 18:09:10 10° E daylight
30 Jul - 19:40:27 10° WSW 19:43:30 38° NW 19:46:35 10° NNE daylight
31 Jul - 02:11:14 10° NNW 02:14:10 30° NE 02:17:06 10° ESE night (unlit)
31 Jul - 03:48:06 10° W 03:50:25 18° SW 03:52:44 10° S night (unlit)
31 Jul - 18:47:18 10° SW 18:50:33 87° NW 18:53:48 10° NE daylight
31 Jul - 20:26:33 10° NW 20:27:24 11° NNW 20:28:15 10° NNW visible
01 Aug - 01:18:50 10° N 01:21:05 17° NNE 01:23:20 10° ENE night (unlit)
01 Aug - 02:54:34 10° WNW 02:57:38 40° SW 03:00:42 10° SSE night (unlit)
01 Aug - 17:54:37 10° SSW 17:57:40 38° SE 18:00:43 10° ENE daylight
01 Aug - 19:31:55 10° WNW 19:34:12 18° NNW 19:36:30 10° NNE daylight
02 Aug - 00:27:13 10° NNE 00:27:53 10° NNE 00:28:33 10° NE night (unlit)
02 Aug - 02:01:29 10° NW 02:04:45 83° NE 02:07:59 10° SE night (unlit)
02 Aug - 17:02:38 10° S 17:04:52 17° SE 17:07:08 10° E daylight
02 Aug - 18:38:09 10° WSW 18:41:06 31° NW 18:44:04 10° NNE daylight
03 Aug - 01:08:44 10° NNW 01:11:47 37° NE 01:14:49 10° ESE night (unlit)
03 Aug - 02:46:02 10° W 02:47:57 15° SW 02:49:51 10° SSW night (unlit)
03 Aug - 17:44:53 10° SW 17:48:07 69° NW 17:51:21 10° NE daylight
04 Aug - 00:16:13 10° NNW 00:18:42 20° NE 00:21:11 10° E night (unlit)
04 Aug - 01:52:13 10° WNW 01:55:10 32° SW 01:58:06 10° SSE night (unlit)
04 Aug - 16:52:04 10° SSW 16:55:12 49° SE 16:58:22 10° ENE daylight
04 Aug - 18:29:48 10° WNW 18:31:49 15° NNW 18:33:51 10° N daylight
04 Aug - 23:24:12 10° N 23:25:31 12° NNE 23:26:52 10° NE visible
05 Aug - 00:59:03 10° NW 01:02:18 77° SW 01:05:32 10° SE night (unlit)
05 Aug - 15:59:49 10° S 16:02:22 21° SE 16:04:56 10° ENE daylight
05 Aug - 17:35:53 10° W 17:38:42 26° NW 17:41:31 10° NNE daylight
06 Aug - 00:06:12 10° NW 00:09:21 45° NE 00:12:28 10° ESE night (unlit)
06 Aug - 01:44:09 10° WSW 01:45:26 12° SW 01:46:43 10° SSW night (unlit)
06 Aug - 16:42:28 10° WSW 16:45:40 54° NW 16:48:51 10° NE daylight
06 Aug - 23:13:37 10° NNW 23:16:17 23° NE 23:18:58 10° E visible
